Weather in Nizhny Novgorod

Russia / Nizhny Novgorod Oblast'     56°19′36″N   44°00′21″E
temp.,
°C
wind,
m/s
gust,
m/s
humid.,
%
clouds,
%
prec.,
mm/h
press.,
hPa
HPBL,
m
6 may, thu
thu600:00+6s2475100 0.1 1010156
03:00+7sw3109376 0.3 1010413
06:00+8ssw269558 0.0 1011220
09:00+13ssw356954 0.0 1011596
12:00+18ssw61047100 0.0 10101788
15:00+18ssw61051100 0.0 10101715
18:00+16s61261100 0.1 10091302
21:00+13s61464100 0.1 10101088
7 may, fri
fri700:00+12s6147191 0.0 1009695
03:00+11ssw51074100 0.1 1010555
06:00+10ssw4884100 0.1 1010678
09:00+8sw3789100 0.9 1012419
12:00+12sw4566100 0.6 10131336
15:00+14sw375197 1.3 10131766
18:00+14sw35435 0.0 10141435
21:00+10ssw23615 0.0 101667
8 may, sat
sat800:00+8s24668 0.0 101778
03:00+6s2474100 0.0 101782
06:00+7sse257255 0.0 1017154
09:00+13sse585599 0.0 10151017
12:00+15sse6846100 0.0 10131478
15:00+17sse6104994 0.0 10101640
18:00+15s61159100 0.0 10091060
21:00+13sse61472100 0.6 1007860
9 may, sun
sun900:00+13s71482100 0.5 1005966
03:00+9wsw51292100 4.5 1006683
06:00+8wsw51085100 1.3 1009802
09:00+7wsw6876100 1.3 10111079
12:00+9wsw4666100 0.0 10141131
15:00+10w4659100 0.0 10161301
18:00+9nw4666100 0.1 1018916
21:00+8nw2569100 0.1 1020479
10 may, mon
mon1000:00+6nw247947 0.0 1022116
03:00+5nnw248475 0.0 1024122
06:00+6n377737 0.0 1027243
09:00+11nne454934 0.0 10281018
12:00+14nne34360 0.0 10281503
15:00+16ne33322 0.0 10281644
18:00+15ne34401 0.0 1028938
21:00+10ne22545 0.0 102931